This demonstration page uses our WeatherBlox Daily Observations layout. Learn more.

39.92423, -83.80882

Hourly Observations for May 6, 2019

Temp ( °F °C ) Dew Point ( °F °C ) Humidity (%) Winds ( mph kmh ) Pressure ( in mb ) Visibility ( mi km ) Precip ( " mm )
12:56 am 00:56 Clear 51 10.6 49 9.4 92 92 Calm 29.97 1015 10 16.0934 0.01 0.254
1:56 am 01:56 Clear 50 10 48 8.9 93 93 SSW 3 6 29.96 1015 10 16.0934 0.01 0.254
2:56 am 02:56 Clear 49 9.4 48 8.9 97 97 SW 6 9 29.98 1015 10 16.0934 0 0
3:56 am 03:56 Clear 49 9.4 46 7.8 90 90 Calm 29.98 1015 10 16.0934 0.01 0.254
4:56 am 04:56 Clear 46 7.8 46 7.8 100 100 Calm 29.98 1015 10 16.0934 0 0
5:56 am 05:56 Clear 46 7.8 46 7.8 100 100 SW 3 6 30.01 1016 10 16.0934 0.01 0.254
6:56 am 06:56 Sunny 48 8.9 46 7.8 93 93 SSW 5 7 30.04 1017 10 16.0934 0 0
7:56 am 07:56 Sunny 53 11.7 49 9.4 86 86 SW 3 6 30.06 1018 10 16.0934 0 0
8:56 am 08:56 Sunny 58 14.4 51 10.6 78 78 SW 6 9 30.07 1018 10 16.0934 0.01 0.254
9:56 am 09:56 Sunny 63 17.2 51 10.6 65 65 SW 8 13 30.06 1018 10 16.0934 0 0
10:56 am 10:56 Sunny 66 18.9 53 11.7 63 63 W 9 15 30.08 1019 10 16.0934 0 0
11:56 am 11:56 Sunny 68 20 52 11.1 57 57 SW 8 13 30.09 1019 10 16.0934 0 0
12:56 pm 12:56 Mostly Sunny 70 21.1 50 10 49 49 SW 10 17 30.08 1019 10 16.0934 0 0
1:56 pm 13:56 Mostly Sunny 72 22.2 50 10 46 46 WNW 7 11 30.07 1018 10 16.0934 0 0
2:56 pm 14:56 Mostly Sunny 73 22.8 53 11.7 50 50 WSW 8 13 30.06 1018 10 16.0934 0.01 0.254
3:56 pm 15:56 Sunny 73 22.8 53 11.7 50 50 SSW 13 20 30.04 1017 10 16.0934 0 0
4:56 pm 16:56 Sunny 74 23.3 52 11.1 46 46 W 8 13 30.04 1017 10 16.0934 0 0
5:56 pm 17:56 Sunny 73 22.8 53 11.7 50 50 S 7 11 30.04 1017 10 16.0934 0.01 0.254
6:56 pm 18:56 Sunny 73 22.8 51 10.6 46 46 SSW 8 13 30.04 1017 10 16.0934 0.01 0.254
7:56 pm 19:56 Sunny 70 21.1 52 11.1 53 53 SSW 3 6 30.06 1018 10 16.0934 0.01 0.254
8:56 pm 20:56 Clear 68 20 51 10.6 55 55 S 3 6 30.07 1018 10 16.0934 0.02 0.508
9:56 pm 21:56 Clear 64 17.8 52 11.1 65 65 S 3 6 30.08 1019 10 16.0934 0.01 0.254
10:56 pm 22:56 Clear 64 17.8 52 11.1 65 65 S 5 7 30.1 1019 10 16.0934 0.01 0.254
11:56 pm 23:56 Clear 62 16.7 52 11.1 70 70 SSW 5 7 30.1 1019 10 16.0934 0 0

Powered by AerisWeather